Darlington, SC

8:44 PM EDT on October 17, 2017 (GMT -0400)
Darlington County Jetport

Weather History for KUDG - December, 2013

Change the Weather History Date:

Friday, December 6, 2013

  Actual Average (KFLO) Record (KFLO)
Temperature  
Mean Temperature 71 °F -  
Max Temperature 80 °F 60 °F 81 °F (1998)
Min Temperature 62 °F 35 °F 23 °F (1987)
Cooling Degree Days 6    
Growing Degree Days 21 (Base 50)    
Moisture  
Dew Point 62 °F    
Average Humidity 74    
Maximum Humidity 88    
Minimum Humidity 51    
Precipitation  
Precipitation 0.00 in - - ()
Sea Level Pressure  
Sea Level Pressure 30.08 in    
Wind  
Wind Speed 10 mph (SSW)    
Max Wind Speed 18 mph    
Max Gust Speed 26 mph    
Visibility 10 miles    
Events      
Averages and records for this station are not official NWS values.
T = Trace of Precipitation, MM = Missing Value Source: NWS Daily Summary

Daily Weather History Graph

Daily Weather History Graph

Search for Another Location

Airport or City:

Trip Planner

Search our weather history database for the weather conditions in past years. The results will help you decide how hot, cold, wet, or windy it might be!

Date:

Astronomy

Dec. 06, 2013 Rise Set
Actual Time 7:12 AM EST 5:09 PM EST
Civil Twilight 6:44 AM EST 5:36 PM EST
Nautical Twilight 6:13 AM EST 6:08 PM EST
Astronomical Twilight 5:42 AM EST 6:38 PM EST
Moon 10:22 AM EST (12/6) 9:32 PM EST (12/6)
Length of Visible Light 10h 52m
Length of Day
9h 56m
Waxing Crescent, 19% of the Moon is Illuminated
Dec 6
Waxing Crescent
Dec 9
First Quarter
Dec 17
Full
Dec 25
Last Quarter
Jan 1
New

Hourly Weather History & Observations

Time (EST) Temp. Heat Index Dew Point Humidity Pressure Visibility Wind Dir Wind Speed Gust Speed Precip Events Conditions
12:15 AM 66.2 °F - 60.8 °F 83% 30.09 in 10.0 mi SSW 9.2 mph - N/A   Overcast
12:35 AM 66.2 °F - 60.8 °F 83% 30.08 in 10.0 mi South 10.4 mph 16.1 mph N/A   Overcast
12:55 AM 66.2 °F - 60.8 °F 83% 30.08 in 10.0 mi SSW 11.5 mph - N/A   Mostly Cloudy
1:15 AM 66.2 °F - 60.8 °F 83% 30.08 in 10.0 mi SSW 9.2 mph - N/A   Overcast
1:35 AM 66.2 °F - 60.8 °F 83% 30.08 in 10.0 mi SSW 9.2 mph - N/A   Overcast
1:55 AM 66.2 °F - 60.8 °F 83% 30.08 in 10.0 mi SSW 9.2 mph - N/A   Scattered Clouds
2:15 AM 66.2 °F - 60.8 °F 83% 30.09 in 10.0 mi SSW 6.9 mph - N/A   Clear
2:35 AM 64.4 °F - 60.8 °F 88% 30.09 in 10.0 mi South 9.2 mph - N/A   Clear
2:55 AM 66.2 °F - 60.8 °F 83% 30.09 in 10.0 mi SSW 8.1 mph - N/A   Clear
3:15 AM 66.2 °F - 60.8 °F 83% 30.08 in 10.0 mi South 9.2 mph - N/A   Clear
3:35 AM 66.2 °F - 60.8 °F 83% 30.08 in 10.0 mi SSW 8.1 mph - N/A   Clear
3:55 AM 64.4 °F - 60.8 °F 88% 30.08 in 10.0 mi SSW 8.1 mph - N/A   Clear
4:15 AM 64.4 °F - 59.0 °F 83% 30.08 in 10.0 mi SSW 8.1 mph - N/A   Clear
4:35 AM 64.4 °F - 59.0 °F 83% 30.09 in 10.0 mi SSW 8.1 mph - N/A   Clear
4:55 AM 64.4 °F - 59.0 °F 83% 30.08 in 10.0 mi SSW 5.8 mph - N/A   Clear
5:15 AM 64.4 °F - 59.0 °F 83% 30.08 in 10.0 mi South 8.1 mph - N/A   Clear
5:35 AM 64.4 °F - 59.0 °F 83% 30.08 in 10.0 mi South 5.8 mph - N/A   Clear
5:55 AM 62.6 °F - 59.0 °F 88% 30.09 in 10.0 mi SSW 5.8 mph - N/A   Clear
6:15 AM 62.6 °F - 59.0 °F 88% 30.10 in 10.0 mi SSW 6.9 mph - N/A   Clear
6:35 AM 62.6 °F - 59.0 °F 88% 30.10 in 10.0 mi SSW 6.9 mph - N/A   Clear
6:55 AM 62.6 °F - 57.2 °F 82% 30.11 in 10.0 mi SSW 5.8 mph - N/A   Clear
7:15 AM 62.6 °F - 57.2 °F 82% 30.11 in 10.0 mi South 4.6 mph - N/A   Clear
7:35 AM 62.6 °F - 59.0 °F 88% 30.11 in 10.0 mi South 8.1 mph - N/A   Clear
7:55 AM 64.4 °F - 60.8 °F 88% 30.11 in 10.0 mi South 10.4 mph - N/A   Clear
8:15 AM 64.4 °F - 60.8 °F 88% 30.11 in 10.0 mi SSW 10.4 mph - N/A   Clear
8:35 AM 64.4 °F - 60.8 °F 88% 30.12 in 10.0 mi SSW 11.5 mph - N/A   Clear
8:55 AM 66.2 °F - 60.8 °F 83% 30.13 in 10.0 mi SSW 9.2 mph - N/A   Clear
9:15 AM 68.0 °F - 60.8 °F 78% 30.14 in 10.0 mi SSW 11.5 mph 17.3 mph N/A   Clear
9:35 AM 69.8 °F - 62.6 °F 78% 30.14 in 10.0 mi SSW 12.7 mph 17.3 mph N/A   Clear
9:55 AM 69.8 °F - 62.6 °F 78% 30.15 in 10.0 mi SSW 8.1 mph - N/A   Clear
10:15 AM 71.6 °F - 62.6 °F 73% 30.15 in 10.0 mi SSW 15.0 mph 18.4 mph N/A   Clear
10:35 AM 73.4 °F - 62.6 °F 69% 30.15 in 10.0 mi SSW 15.0 mph 20.7 mph N/A   Clear
10:55 AM 73.4 °F - 64.4 °F 73% 30.15 in 10.0 mi SW 11.5 mph - N/A   Clear
11:15 AM 73.4 °F - 64.4 °F 73% 30.14 in 10.0 mi North - - N/A   Scattered Clouds
11:35 AM 77.0 °F - 64.4 °F 65% 30.13 in 10.0 mi SSW 11.5 mph - N/A   Scattered Clouds
11:55 AM 78.8 °F - 64.4 °F 61% 30.12 in 10.0 mi SSW 15.0 mph 20.7 mph N/A   Scattered Clouds
12:15 PM 78.8 °F - 64.4 °F 61% - 10.0 mi SSW 15.0 mph 20.7 mph N/A   Scattered Clouds
12:35 PM 78.8 °F - 64.4 °F 61% 30.10 in 10.0 mi SSW 15.0 mph 20.7 mph N/A   Scattered Clouds
12:55 PM 78.8 °F - 64.4 °F 61% 30.09 in 10.0 mi SW 15.0 mph 20.7 mph N/A   Partly Cloudy
1:15 PM 78.8 °F - 62.6 °F 57% 30.08 in 10.0 mi SSW 16.1 mph 23.0 mph N/A   Partly Cloudy
1:35 PM 80.6 °F 81.8 °F 62.6 °F 54% 30.07 in 10.0 mi SSW 13.8 mph 18.4 mph N/A   Scattered Clouds
1:55 PM 78.8 °F - 62.6 °F 57% 30.06 in 10.0 mi North - - N/A   Partly Cloudy
2:15 PM 80.6 °F 81.8 °F 62.6 °F 54% 30.05 in 10.0 mi SSW 18.4 mph 23.0 mph N/A   Clear
2:35 PM 80.6 °F 81.8 °F 62.6 °F 54% - 10.0 mi North - - N/A   Clear
2:55 PM 80.6 °F 81.5 °F 60.8 °F 51% 30.04 in 10.0 mi SSW 17.3 mph 23.0 mph N/A   Clear
3:15 PM 78.8 °F - 60.8 °F 54% 30.04 in 10.0 mi SSW 15.0 mph 20.7 mph N/A   Clear
3:35 PM 78.8 °F - 60.8 °F 54% 30.04 in 10.0 mi SSW 16.1 mph 21.9 mph N/A   Clear
3:55 PM 78.8 °F - 60.8 °F 54% 30.05 in 10.0 mi SSW 15.0 mph 26.5 mph N/A   Clear
4:15 PM 77.0 °F - 60.8 °F 57% 30.05 in 10.0 mi SSW 12.7 mph 21.9 mph N/A   Clear
4:35 PM 75.2 °F - 60.8 °F 61% 30.05 in 10.0 mi SSW 8.1 mph - N/A   Clear
4:55 PM 75.2 °F - 62.6 °F 65% 30.05 in 10.0 mi South 8.1 mph - N/A   Clear
5:15 PM 75.2 °F - 62.6 °F 65% 30.06 in 10.0 mi South 8.1 mph - N/A   Clear
5:35 PM 73.4 °F - 62.6 °F 69% 30.06 in 10.0 mi South 8.1 mph - N/A   Clear
5:55 PM 73.4 °F - 62.6 °F 69% 30.06 in 10.0 mi South 8.1 mph - N/A   Clear
6:15 PM 73.4 °F - 62.6 °F 69% 30.06 in 10.0 mi South 8.1 mph - N/A   Clear
6:35 PM 71.6 °F - 60.8 °F 69% 30.06 in 10.0 mi SSE 8.1 mph - N/A   Clear
6:55 PM 71.6 °F - 62.6 °F 73% 30.06 in 10.0 mi South 10.4 mph - N/A   Clear
7:15 PM 71.6 °F - 62.6 °F 73% 30.06 in 10.0 mi South 10.4 mph - N/A   Clear
7:35 PM 71.6 °F - 62.6 °F 73% 30.06 in 10.0 mi South 11.5 mph - N/A   Clear
7:55 PM 71.6 °F - 62.6 °F 73% 30.06 in 10.0 mi South 11.5 mph - N/A   Clear
8:15 PM 71.6 °F - 62.6 °F 73% 30.06 in 10.0 mi South 11.5 mph 16.1 mph N/A   Clear
8:35 PM 71.6 °F - 62.6 °F 73% 30.06 in 10.0 mi South 10.4 mph 16.1 mph N/A   Clear
8:55 PM 71.6 °F - 62.6 °F 73% 30.06 in 10.0 mi South 11.5 mph - N/A   Clear
9:15 PM 69.8 °F - 62.6 °F 78% 30.06 in 10.0 mi South 11.5 mph - N/A   Clear
9:35 PM 69.8 °F - 62.6 °F 78% 30.06 in 10.0 mi South 8.1 mph - N/A   Clear
9:55 PM 69.8 °F - 62.6 °F 78% 30.06 in 10.0 mi South 10.4 mph - N/A   Clear
10:15 PM 69.8 °F - 62.6 °F 78% 30.06 in 10.0 mi South 9.2 mph - N/A   Clear
10:35 PM 69.8 °F - 62.6 °F 78% 30.07 in 10.0 mi SSW 10.4 mph - N/A   Clear
10:55 PM 69.8 °F - 62.6 °F 78% 30.07 in 10.0 mi SSW 8.1 mph - N/A   Clear
11:15 PM 69.8 °F - 62.6 °F 78% 30.08 in 10.0 mi SSW 11.5 mph - N/A   Clear
11:35 PM 68.0 °F - 62.6 °F 83% 30.08 in 10.0 mi SSW 8.1 mph - N/A   Clear
11:55 PM 66.2 °F - 62.6 °F 88% 30.08 in 10.0 mi SSW 9.2 mph - N/A   Clear